| time (UTC) | temp F | wind direction | speed MPH | gust MPH | rain 1hr in | rain 24hr in | rain mn in | humidity % | barometer mb |
| 20260831043520 | 70 | 0.0 | 0.0 | 0.00 | 0.00 | 0.00 | 88 | 1013.3 | |
| 20260831042540 | 71 | 0.0 | 0.0 | 0.00 | 0.00 | 0.00 | 89 | 1013.5 | |
| 20260831041537 | 71 | 0.0 | 0.0 | 0.00 | 0.00 | 0.00 | 89 | 1013.5 | |
| 20260831040536 | 71 | 0.0 | 0.0 | 0.00 | 0.00 | 0.00 | 89 | 1013.6 | |
| 20260831035528 | 72 | 0.0 | 0.0 | 0.00 | 0.00 | 0.00 | 89 | 1013.7 | |
| 20260831034540 | 72 | 0.0 | 1.0 | 0.00 | 0.00 | 0.00 | 89 | 1013.5 | |
| 20260831033520 | 72 | 0.0 | 0.0 | 0.00 | 0.00 | 0.00 | 89 | 1013.6 | |
| 20260831032545 | 72 | 0.0 | 0.0 | 0.00 | 0.00 | 0.00 | 89 | 1013.7 | |
| 20260831031528 | 72 | 0.0 | 0.0 | 0.00 | 0.00 | 0.00 | 88 | 1013.6 | |
| 20260831030528 | 72 | 0.0 | 0.0 | 0.00 | 0.00 | 0.00 | 88 | 1013.5 | |
| 20260831025559 | 72 | 0.0 | 0.0 | 0.00 | 0.00 | 0.00 | 88 | 1013.4 | |
| 20260831024545 | 73 | 0.0 | 0.0 | 0.00 | 0.00 | 0.00 | 88 | 1013.1 | |
| 20260831023537 | 73 | 0.0 | 0.0 | 0.00 | 0.00 | 0.00 | 87 | 1013.0 | |
| 20260831022520 | 73 | 0.0 | 0.0 | 0.00 | 0.00 | 0.00 | 87 | 1012.9 | |
| 20260831021529 | 73 | 0.0 | 0.0 | 0.00 | 0.00 | 0.00 | 87 | 1012.7 | |
| 20260831020529 | 74 | 0.0 | 0.0 | 0.00 | 0.00 | 0.00 | 87 | 1012.5 | |
| 20260831015540 | 73 | 0.0 | 0.0 | 0.00 | 0.00 | 0.00 | 87 | 1012.6 | |
| 20260831014536 | 74 | 0.0 | 0.0 | 0.00 | 0.00 | 0.00 | 87 | 1012.3 | |
| 20260831013528 | 73 | 0.0 | 0.0 | 0.00 | 0.00 | 0.00 | 87 | 1012.3 | |
| 20260831012801 | 74 | 0.0 | 0.0 | 0.00 | 0.00 | 0.00 | 87 | 1012.1 | |
| 20260831012029 | 74 | 0.0 | 0.0 | 0.00 | 0.00 | 0.00 | 87 | 1012.0 | |
| 20260831011029 | 74 | 0.0 | 0.0 | 0.00 | 0.00 | 0.00 | 86 | 1011.9 | |
| 20260831010039 | 75 | 0.0 | 0.0 | 0.00 | 0.00 | 0.00 | 85 | 1012.0 | |
| 20260831005037 | 76 | 0.0 | 0.0 | 0.00 | 0.00 | 0.00 | 83 | 1011.9 | |
| 20260831004125 | 77 | 0.0 | 0.0 | 0.00 | 0.00 | 0.00 | 82 | 1011.7 | |
| 20260831003029 | 77 | 0.0 | 0.0 | 0.00 | 0.00 | 0.00 | 81 | 1011.9 | |
| 20260831002020 | 78 | 0.0 | 0.0 | 0.00 | 0.00 | 0.00 | 80 | 1011.8 | |
| 20260831001037 | 78 | 0.0 | 0.0 | 0.00 | 0.00 | 0.00 | 79 | 1011.8 | |
| 20260831000020 | 78 | 0.0 | 0.0 | 0.00 | 0.00 | 0.00 | 79 | 1011.7 | |
| 20260830235028 | 78 | 0.0 | 0.0 | 0.00 | 0.00 | 0.00 | 79 | 1011.8 | |
| 20260830234020 | 79 | 0.0 | 0.0 | 0.00 | 0.00 | 0.00 | 77 | 1011.8 | |
| 20260830233037 | 79 | 0.0 | 1.0 | 0.00 | 0.00 | 0.00 | 76 | 1011.7 | |
| 20260830232019 | 79 | 0.0 | 0.0 | 0.00 | 0.00 | 0.00 | 76 | 1011.6 | |
| 20260830231037 | 79 | 0.0 | 2.0 | 0.00 | 0.00 | 0.00 | 75 | 1011.5 | |
| 20260830230020 | 80 | 0.0 | 0.0 | 0.00 | 0.00 | 0.00 | 74 | 1011.7 | |
| 20260830225020 | 80 | 0.0 | 1.0 | 0.00 | 0.00 | 0.00 | 73 | 1011.5 | |
| 20260830224020 | 81 | 0.0 | 1.0 | 0.00 | 0.00 | 0.00 | 75 | 1011.5 | |
| 20260830223020 | 81 | 0.0 | 1.0 | 0.00 | 0.00 | 0.00 | 73 | 1011.6 | |
| 20260830222037 | 81 | 0.0 | 1.0 | 0.00 | 0.00 | 0.00 | 72 | 1011.5 | |
| 20260830221049 | 82 | 0.0 | 1.0 | 0.00 | 0.00 | 0.00 | 72 | 1011.5 | |
| 20260830220028 | 82 | 0.0 | 2.0 | 0.00 | 0.00 | 0.00 | 70 | 1011.4 | |
| 20260830215037 | 82 | 0.0 | 1.0 | 0.00 | 0.00 | 0.00 | 69 | 1011.3 | |
| 20260830214019 | 82 | 0.0 | 1.0 | 0.00 | 0.00 | 0.00 | 70 | 1011.4 | |
| 20260830213028 | 82 | 0.0 | 0.0 | 0.00 | 0.00 | 0.00 | 71 | 1011.3 | |
| 20260830212240 | 81 | 0.0 | 1.0 | 0.00 | 0.00 | 0.00 | 71 | 1011.3 | |
| 20260830211036 | 81 | 0.0 | 0.0 | 0.00 | 0.00 | 0.00 | 71 | 1011.5 | |
| 20260830210019 | 82 | 0.0 | 1.0 | 0.00 | 0.00 | 0.00 | 71 | 1011.5 | |
| 20260830205020 | 82 | 0.0 | 1.0 | 0.00 | 0.00 | 0.00 | 70 | 1011.5 | |
| 20260830204100 | 81 | 0.0 | 1.0 | 0.00 | 0.00 | 0.00 | 71 | 1011.5 | |
| 20260830203027 | 81 | 0.0 | 0.0 | 0.00 | 0.00 | 0.00 | 71 | 1011.5 | |
| 20260830202050 | 81 | 0.0 | 0.0 | 0.00 | 0.00 | 0.00 | 75 | 1011.5 | |
| 20260830201037 | 81 | 0.0 | 0.0 | 0.00 | 0.00 | 0.00 | 72 | 1011.4 | |
| 20260830200045 | 81 | 0.0 | 1.0 | 0.00 | 0.00 | 0.00 | 72 | 1011.5 | |
| 20260830195019 | 81 | 0.0 | 0.0 | 0.00 | 0.00 | 0.00 | 73 | 1011.6 | |
| 20260830194036 | 80 | 0.0 | 1.0 | 0.00 | 0.00 | 0.00 | 73 | 1011.8 | |
| 20260830193037 | 79 | 0.0 | 0.0 | 0.00 | 0.00 | 0.00 | 74 | 1011.9 | |
| 20260830192028 | 78 | 0.0 | 0.0 | 0.00 | 0.00 | 0.00 | 76 | 1012.3 | |
| 20260830191036 | 78 | 0.0 | 1.0 | 0.00 | 0.00 | 0.00 | 77 | 1012.4 | |
| 20260830190028 | 78 | 0.0 | 1.0 | 0.00 | 0.00 | 0.00 | 76 | 1012.5 | |
| 20260830185240 | 78 | 0.0 | 0.0 | 0.00 | 0.00 | 0.00 | 77 | 1012.5 | |
| 20260830184019 | 79 | 0.0 | 0.0 | 0.00 | 0.00 | 0.00 | 76 | 1012.5 | |
| 20260830183020 | 79 | 0.0 | 0.0 | 0.00 | 0.00 | 0.00 | 75 | 1012.8 | |
| 20260830182039 | 79 | 0.0 | 0.0 | 0.00 | 0.00 | 0.00 | 76 | 1012.7 | |
| 20260830181027 | 79 | 0.0 | 0.0 | 0.00 | 0.00 | 0.00 | 75 | 1012.5 | |
| 20260830180027 | 80 | 0.0 | 0.0 | 0.00 | 0.00 | 0.00 | 73 | 1012.3 | |
| 20260830175019 | 80 | 0.0 | 4.0 | 0.00 | 0.01 | 0.00 | 72 | 1012.1 | |
| 20260830174045 | 80 | 0.0 | 1.0 | 0.00 | 0.01 | 0.00 | 71 | 1012.0 | |
| 20260830173048 | 80 | 0.0 | 2.0 | 0.00 | 0.01 | 0.00 | 71 | 1011.8 | |
| 20260830172019 | 80 | 0.0 | 0.0 | 0.00 | 0.01 | 0.00 | 73 | 1011.8 | |
| 20260830171116 | 80 | 0.0 | 2.0 | 0.00 | 0.01 | 0.00 | 71 | 1011.9 | |
| 20260830170039 | 80 | 0.0 | 1.0 | 0.00 | 0.01 | 0.00 | 70 | 1011.8 | |
| 20260830165019 | 81 | 0.0 | 4.0 | 0.00 | 0.01 | 0.00 | 69 | 1011.7 | |
| 20260830164047 | 81 | 0.0 | 2.0 | 0.00 | 0.01 | 0.00 | 71 | 1011.7 | |
| 20260830163039 | 80 | 0.0 | 1.0 | 0.00 | 0.03 | 0.00 | 72 | 1011.6 | |
| 20260830162036 | 81 | 0.0 | 2.0 | 0.00 | 0.05 | 0.00 | 68 | 1011.8 | |
| 20260830161028 | 80 | 0.0 | 1.0 | 0.00 | 0.05 | 0.00 | 72 | 1011.7 | |
| 20260830160037 | 79 | 0.0 | 1.0 | 0.00 | 0.06 | 0.00 | 71 | 1011.7 | |
| 20260830155039 | 79 | 0.0 | 2.0 | 0.00 | 0.07 | 0.00 | 71 | 1011.8 | |
| 20260830154028 | 79 | 0.0 | 1.0 | 0.00 | 0.07 | 0.00 | 73 | 1011.8 | |
| 20260830153039 | 78 | 0.0 | 1.0 | 0.00 | 0.08 | 0.00 | 73 | 1012.0 | |
| 20260830152019 | 77 | 0.0 | 1.0 | 0.00 | 0.08 | 0.00 | 73 | 1011.9 | |
| 20260830151045 | 77 | 0.0 | 1.0 | 0.00 | 0.09 | 0.00 | 76 | 1012.2 | |
| 20260830150019 | 76 | 0.0 | 2.0 | 0.00 | 0.09 | 0.00 | 77 | 1012.1 | |
| 20260830145037 | 75 | 0.0 | 0.0 | 0.00 | 0.09 | 0.00 | 81 | 1011.9 | |
| 20260830144019 | 74 | 0.0 | 3.0 | 0.00 | 0.09 | 0.00 | 81 | 1011.8 | |
| 20260830143019 | 73 | 0.0 | 2.0 | 0.00 | 0.10 | 0.00 | 83 | 1011.7 | |
| 20260830142045 | 73 | 0.0 | 0.0 | 0.00 | 0.11 | 0.00 | 84 | 1012.0 | |
| 20260830141019 | 72 | 0.0 | 1.0 | 0.00 | 0.11 | 0.00 | 84 | 1012.1 | |
| 20260830140019 | 72 | 0.0 | 1.0 | 0.00 | 0.12 | 0.00 | 85 | 1011.9 | |
| 20260830135018 | 72 | 0.0 | 1.0 | 0.00 | 0.12 | 0.00 | 87 | 1011.9 | |
| 20260830134036 | 70 | 0.0 | 0.0 | 0.00 | 0.12 | 0.00 | 88 | 1011.7 | |
| 20260830133039 | 70 | 0.0 | 1.0 | 0.00 | 0.13 | 0.00 | 88 | 1011.8 | |
| 20260830132019 | 69 | 0.0 | 1.0 | 0.00 | 0.13 | 0.00 | 88 | 1011.6 | |
| 20260830131036 | 68 | 0.0 | 0.0 | 0.00 | 0.13 | 0.00 | 88 | 1011.5 | |
| 20260830130019 | 68 | 0.0 | 2.0 | 0.00 | 0.13 | 0.00 | 86 | 1011.4 | |
| 20260830125027 | 67 | 0.0 | 0.0 | 0.00 | 0.13 | 0.00 | 81 | 1011.7 | |
| 20260830124045 | 66 | 0.0 | 1.0 | 0.00 | 0.13 | 0.00 | 81 | 1011.7 | |
| 20260830123019 | 65 | 0.0 | 0.0 | 0.00 | 0.13 | 0.00 | 82 | 1012.0 | |
| 20260830122036 | 65 | 0.0 | 0.0 | 0.00 | 0.13 | 0.00 | 82 | 1011.8 | |
| 20260830121019 | 65 | 0.0 | 0.0 | 0.00 | 0.13 | 0.00 | 82 | 1011.6 | |
| 20260830120027 | 65 | 0.0 | 0.0 | 0.00 | 0.13 | 0.00 | 82 | 1011.6 | |
| 20260830115047 | 65 | 0.0 | 0.0 | 0.00 | 0.13 | 0.00 | 82 | 1011.5 | |
| 20260830114018 | 65 | 0.0 | 0.0 | 0.00 | 0.13 | 0.00 | 82 | 1011.5 | |
| 20260830113048 | 64 | 0.0 | 0.0 | 0.00 | 0.13 | 0.00 | 82 | 1011.4 | |
| 20260830112019 | 65 | 0.0 | 0.0 | 0.00 | 0.13 | 0.00 | 82 | 1011.4 | |
| 20260830111018 | 65 | 0.0 | 0.0 | 0.00 | 0.13 | 0.00 | 82 | 1011.4 | |
| 20260830110027 | 65 | 0.0 | 0.0 | 0.00 | 0.13 | 0.00 | 82 | 1011.4 | |
| 20260830105036 | 65 | 0.0 | 0.0 | 0.00 | 0.13 | 0.00 | 82 | 1011.3 | |
| 20260830104044 | 65 | 0.0 | 0.0 | 0.00 | 0.13 | 0.00 | 82 | 1011.2 | |
| 20260830103018 | 65 | 0.0 | 0.0 | 0.00 | 0.13 | 0.00 | 82 | 1011.2 | |
| 20260830102027 | 65 | 0.0 | 0.0 | 0.00 | 0.13 | 0.00 | 82 | 1011.4 | |
| 20260830101027 | 65 | 0.0 | 0.0 | 0.00 | 0.13 | 0.00 | 82 | 1011.3 | |
| 20260830100027 | 66 | 0.0 | 0.0 | 0.00 | 0.13 | 0.00 | 82 | 1011.3 | |
| 20260830095044 | 66 | 0.0 | 0.0 | 0.00 | 0.13 | 0.00 | 82 | 1011.4 | |
| 20260830094018 | 66 | 0.0 | 0.0 | 0.00 | 0.13 | 0.00 | 82 | 1011.6 | |
| 20260830093019 | 66 | 0.0 | 0.0 | 0.00 | 0.13 | 0.00 | 82 | 1011.7 | |
| 20260830092027 | 66 | 0.0 | 0.0 | 0.00 | 0.13 | 0.00 | 82 | 1011.8 | |
| 20260830091019 | 66 | 0.0 | 0.0 | 0.00 | 0.13 | 0.00 | 82 | 1011.8 | |
| 20260830090058 | 66 | 0.0 | 0.0 | 0.00 | 0.13 | 0.00 | 82 | 1012.0 | |
| 20260830085018 | 66 | 0.0 | 0.0 | 0.00 | 0.13 | 0.00 | 82 | 1012.1 | |
| 20260830084027 | 66 | 0.0 | 0.0 | 0.00 | 0.13 | 0.00 | 82 | 1012.0 | |
| 20260830083018 | 66 | 0.0 | 0.0 | 0.00 | 0.13 | 0.00 | 82 | 1012.1 | |
| 20260830082018 | 66 | 0.0 | 0.0 | 0.00 | 0.13 | 0.00 | 83 | 1012.3 | |
| 20260830081027 | 66 | 0.0 | 0.0 | 0.00 | 0.13 | 0.00 | 83 | 1012.4 | |
| 20260830080026 | 66 | 0.0 | 0.0 | 0.00 | 0.13 | 0.00 | 83 | 1012.3 | |
| 20260830075027 | 66 | 0.0 | 0.0 | 0.00 | 0.13 | 0.00 | 84 | 1012.3 | |
| 20260830074018 | 66 | 0.0 | 0.0 | 0.00 | 0.13 | 0.00 | 85 | 1012.3 | |
| 20260830073044 | 66 | 0.0 | 0.0 | 0.00 | 0.13 | 0.00 | 86 | 1012.2 | |
| 20260830072021 | 66 | 0.0 | 0.0 | 0.00 | 0.13 | 0.00 | 87 | 1012.4 | |
| 20260830071039 | 66 | 0.0 | 0.0 | 0.00 | 0.13 | 0.00 | 88 | 1012.5 | |
| 20260830070027 | 66 | 0.0 | 0.0 | 0.00 | 0.13 | 0.00 | 88 | 1012.6 | |
| 20260830065020 | 67 | 0.0 | 0.0 | 0.00 | 0.13 | 0.00 | 88 | 1012.7 | |
| 20260830064018 | 67 | 0.0 | 0.0 | 0.00 | 0.13 | 0.00 | 89 | 1012.8 | |
| 20260830063144 | 67 | 0.0 | 0.0 | 0.00 | 0.13 | 0.00 | 89 | 1012.8 | |
| 20260830062027 | 67 | 0.0 | 0.0 | 0.00 | 0.13 | 0.00 | 89 | 1012.9 | |
| 20260830061027 | 67 | 0.0 | 0.0 | 0.00 | 0.13 | 0.00 | 89 | 1013.0 | |
| 20260830060027 | 67 | 0.0 | 0.0 | 0.00 | 0.13 | 0.00 | 89 | 1013.1 | |
| 20260830055019 | 67 | 0.0 | 0.0 | 0.00 | 0.13 | 0.00 | 89 | 1013.1 | |
| 20260830054037 | 67 | 0.0 | 0.0 | 0.00 | 0.13 | 0.00 | 89 | 1013.2 | |
| 20260830053039 | 67 | 0.0 | 0.0 | 0.00 | 0.13 | 0.00 | 89 | 1013.3 | |
| 20260830052035 | 67 | 0.0 | 0.0 | 0.00 | 0.13 | 0.00 | 89 | 1013.5 | |
| 20260830051018 | 67 | 0.0 | 1.0 | 0.00 | 0.13 | 0.00 | 89 | 1013.7 | |
| 20260830050018 | 67 | 0.0 | 0.0 | 0.00 | 0.13 | 0.13 | 89 | 1013.8 | |
| 20260830045028 | 67 | 0.0 | 0.0 | 0.00 | 0.13 | 0.13 | 89 | 1013.9 | |
| 20260830044039 | 67 | 0.0 | 1.0 | 0.00 | 0.13 | 0.13 | 89 | 1014.0 |